Time,TemperatureF,DewpointF,PressureIn,WindDirection,WindDirectionDegrees,WindSpeedMPH,WindSpeedGustMPH,Humidity,HourlyPrecipIn,Conditions,Clouds,dailyrainin,SoftwareType,DateUTC
2013-06-26 00:02:00,81.0,-99.9,29.93,SE,138,12.0,16.0,-999,-99.99,,,-99.99,,2013-06-26 05:02:00,
2013-06-26 00:11:00,81.0,-99.9,29.93,SE,138,12.0,15.0,-999,-99.99,,,-99.99,,2013-06-26 05:11:00,
2013-06-26 00:34:00,81.0,-99.9,29.94,SE,143,13.0,16.0,-999,-99.99,,,-99.99,,2013-06-26 05:34:00,
2013-06-26 00:43:00,81.0,-99.9,29.94,SE,139,11.0,14.0,-999,-99.99,,,-99.99,,2013-06-26 05:43:00,
2013-06-26 00:52:00,81.0,-99.9,29.94,SE,143,11.0,17.0,-999,-99.99,,,-99.99,,2013-06-26 05:52:00,
2013-06-26 01:02:00,81.0,-99.9,29.94,SE,139,11.0,16.0,-999,-99.99,,,-99.99,,2013-06-26 06:02:00,
2013-06-26 01:12:00,81.0,-99.9,29.94,SE,142,8.0,12.0,-999,-99.99,,,-99.99,,2013-06-26 06:12:00,
2013-06-26 01:34:00,81.0,-99.9,29.95,SSE,147,11.0,16.0,-999,-99.99,,,-99.99,,2013-06-26 06:34:00,
2013-06-26 01:44:00,81.0,-99.9,29.95,SE,145,11.0,15.0,-999,-99.99,,,-99.99,,2013-06-26 06:44:00,
2013-06-26 01:53:00,80.0,-99.9,29.95,SE,146,10.0,14.0,-999,-99.99,,,-99.99,,2013-06-26 06:53:00,
2013-06-26 02:02:00,80.0,-99.9,29.95,SSE,148,9.0,15.0,-999,-99.99,,,-99.99,,2013-06-26 07:02:00,
2013-06-26 02:11:00,80.0,-99.9,29.95,SSE,149,9.0,14.0,-999,-99.99,,,-99.99,,2013-06-26 07:11:00,
2013-06-26 02:33:00,80.0,-99.9,29.95,SE,143,11.0,13.0,-999,-99.99,,,-99.99,,2013-06-26 07:33:00,
2013-06-26 02:43:00,80.0,-99.9,29.95,SE,145,10.0,15.0,-999,-99.99,,,-99.99,,2013-06-26 07:43:00,
2013-06-26 02:53:00,80.0,-99.9,29.95,SE,143,10.0,13.0,-999,-99.99,,,-99.99,,2013-06-26 07:53:00,
2013-06-26 03:01:00,80.0,-99.9,29.95,SSE,147,9.0,13.0,-999,-99.99,,,-99.99,,2013-06-26 08:01:00,
2013-06-26 03:11:00,80.0,-99.9,29.94,SSE,147,11.0,14.0,-999,-99.99,,,-99.99,,2013-06-26 08:11:00,
2013-06-26 03:34:00,80.0,-99.9,29.94,SSE,149,12.0,17.0,-999,-99.99,,,-99.99,,2013-06-26 08:34:00,
2013-06-26 03:43:00,80.0,-99.9,29.94,SSE,148,11.0,18.0,-999,-99.99,,,-99.99,,2013-06-26 08:43:00,
2013-06-26 03:53:00,80.0,-99.9,29.94,SSE,153,11.0,15.0,-999,-99.99,,,-99.99,,2013-06-26 08:53:00,
2013-06-26 04:01:00,80.0,-99.9,29.93,SSE,155,12.0,15.0,-999,-99.99,,,-99.99,,2013-06-26 09:01:00,
2013-06-26 04:11:00,80.0,-99.9,29.93,SSE,157,12.0,15.0,-999,-99.99,,,-99.99,,2013-06-26 09:11:00,
2013-06-26 04:23:00,80.0,-99.9,29.93,SSE,157,12.0,15.0,-999,-99.99,,,-99.99,,2013-06-26 09:23:00,
2013-06-26 04:33:00,80.0,-99.9,29.93,SSE,153,11.0,16.0,-999,-99.99,,,-99.99,,2013-06-26 09:33:00,
2013-06-26 04:43:00,80.0,-99.9,29.93,SSE,156,11.0,17.0,-999,-99.99,,,-99.99,,2013-06-26 09:43:00,
2013-06-26 04:53:00,80.0,-99.9,29.93,SSE,154,11.0,17.0,-999,-99.99,,,-99.99,,2013-06-26 09:53:00,
2013-06-26 05:01:00,80.0,-99.9,29.93,SSE,153,12.0,17.0,-999,-99.99,,,-99.99,,2013-06-26 10:01:00,
2013-06-26 05:12:00,80.0,-99.9,29.93,SSE,151,12.0,17.0,-999,-99.99,,,-99.99,,2013-06-26 10:12:00,
2013-06-26 05:34:00,80.0,-99.9,29.92,SSE,155,12.0,15.0,-999,-99.99,,,-99.99,,2013-06-26 10:34:00,
2013-06-26 05:43:00,80.0,-99.9,29.92,SSE,155,11.0,17.0,-999,-99.99,,,-99.99,,2013-06-26 10:43:00,
2013-06-26 05:53:00,80.0,-99.9,29.93,SSE,160,13.0,17.0,-999,-99.99,,,-99.99,,2013-06-26 10:53:00,
2013-06-26 06:02:00,80.0,-99.9,29.93,SSE,157,11.0,15.0,-999,-99.99,,,-99.99,,2013-06-26 11:02:00,
2013-06-26 06:12:00,80.0,-99.9,29.93,SSE,156,12.0,15.0,-999,-99.99,,,-99.99,,2013-06-26 11:12:00,
2013-06-26 06:33:00,80.0,-99.9,29.93,SSE,158,11.0,15.0,-999,-99.99,,,-99.99,,2013-06-26 11:33:00,
2013-06-26 06:44:00,80.0,-99.9,29.93,SSE,157,11.0,17.0,-999,-99.99,,,-99.99,,2013-06-26 11:44:00,
2013-06-26 06:52:00,80.0,-99.9,29.94,SSE,156,11.0,18.0,-999,-99.99,,,-99.99,,2013-06-26 11:52:00,
2013-06-26 07:02:00,80.0,-99.9,29.94,SSE,154,11.0,17.0,-999,-99.99,,,-99.99,,2013-06-26 12:02:00,
2013-06-26 07:12:00,80.0,-99.9,29.94,SSE,155,11.0,15.0,-999,-99.99,,,-99.99,,2013-06-26 12:12:00,
2013-06-26 07:34:00,80.0,-99.9,29.95,SSE,154,9.0,13.0,-999,-99.99,,,-99.99,,2013-06-26 12:34:00,
2013-06-26 07:43:00,80.0,-99.9,29.95,SSE,155,10.0,14.0,-999,-99.99,,,-99.99,,2013-06-26 12:43:00,
2013-06-26 07:52:00,80.0,-99.9,29.95,SSE,153,9.0,11.0,-999,-99.99,,,-99.99,,2013-06-26 12:52:00,
2013-06-26 08:02:00,80.0,-99.9,29.95,SSE,152,11.0,14.0,-999,-99.99,,,-99.99,,2013-06-26 13:02:00,
2013-06-26 08:11:00,81.0,-99.9,29.95,SSE,152,8.0,13.0,-999,-99.99,,,-99.99,,2013-06-26 13:11:00,
2013-06-26 08:34:00,81.0,-99.9,29.95,SSE,155,10.0,13.0,-999,-99.99,,,-99.99,,2013-06-26 13:34:00,
2013-06-26 08:43:00,81.0,-99.9,29.95,SSE,152,10.0,15.0,-999,-99.99,,,-99.99,,2013-06-26 13:43:00,
2013-06-26 08:53:00,82.0,-99.9,29.95,SSE,153,11.0,16.0,-999,-99.99,,,-99.99,,2013-06-26 13:53:00,
2013-06-26 09:34:00,82.0,-99.9,29.96,SSE,154,13.0,20.0,-999,-99.99,,,-99.99,,2013-06-26 14:34:00,
2013-06-26 09:42:00,82.0,-99.9,29.96,SSE,149,14.0,21.0,-999,-99.99,,,-99.99,,2013-06-26 14:42:00,
2013-06-26 09:53:00,83.0,-99.9,29.96,SSE,154,11.0,17.0,-999,-99.99,,,-99.99,,2013-06-26 14:53:00,
2013-06-26 10:02:00,83.0,-99.9,29.96,SSE,153,11.0,16.0,-999,-99.99,,,-99.99,,2013-06-26 15:02:00,
2013-06-26 10:12:00,83.0,-99.9,29.97,SSE,156,12.0,18.0,-999,-99.99,,,-99.99,,2013-06-26 15:12:00,
2013-06-26 10:34:00,83.0,-99.9,29.96,SSE,150,14.0,20.0,-999,-99.99,,,-99.99,,2013-06-26 15:34:00,
2013-06-26 10:44:00,83.0,-99.9,29.97,SE,146,11.0,18.0,-999,-99.99,,,-99.99,,2013-06-26 15:44:00,
2013-06-26 10:53:00,84.0,-99.9,29.97,SSE,150,11.0,18.0,-999,-99.99,,,-99.99,,2013-06-26 15:53:00,
2013-06-26 11:02:00,84.0,-99.9,29.97,SSE,148,13.0,17.0,-999,-99.99,,,-99.99,,2013-06-26 16:02:00,
2013-06-26 11:11:00,84.0,-99.9,29.97,SSE,154,12.0,17.0,-999,-99.99,,,-99.99,,2013-06-26 16:11:00,
2013-06-26 11:34:00,84.0,-99.9,29.98,SE,138,13.0,18.0,-999,-99.99,,,-99.99,,2013-06-26 16:34:00,
2013-06-26 11:43:00,84.0,-99.9,29.98,SSE,159,12.0,19.0,-999,-99.99,,,-99.99,,2013-06-26 16:43:00,
2013-06-26 11:52:00,85.0,-99.9,29.98,SE,138,13.0,15.0,-999,-99.99,,,-99.99,,2013-06-26 16:52:00,
2013-06-26 12:02:00,85.0,-99.9,29.98,SSE,150,13.0,19.0,-999,-99.99,,,-99.99,,2013-06-26 17:02:00,
2013-06-26 12:11:00,85.0,-99.9,29.98,SE,146,12.0,17.0,-999,-99.99,,,-99.99,,2013-06-26 17:11:00,
2013-06-26 12:33:00,85.0,-99.9,29.98,SE,138,14.0,21.0,-999,-99.99,,,-99.99,,2013-06-26 17:33:00,
2013-06-26 12:43:00,84.0,-99.9,29.98,SE,135,15.0,21.0,-999,-99.99,,,-99.99,,2013-06-26 17:43:00,
2013-06-26 12:52:00,84.0,-99.9,29.98,SE,136,18.0,23.0,-999,-99.99,,,-99.99,,2013-06-26 17:52:00,
2013-06-26 13:01:00,85.0,-99.9,29.97,SE,134,17.0,24.0,-999,-99.99,,,-99.99,,2013-06-26 18:01:00,
2013-06-26 13:12:00,85.0,-99.9,29.97,SE,141,17.0,23.0,-999,-99.99,,,-99.99,,2013-06-26 18:12:00,
2013-06-26 13:34:00,85.0,-99.9,29.96,SE,141,17.0,24.0,-999,-99.99,,,-99.99,,2013-06-26 18:34:00,
2013-06-26 13:43:00,85.0,-99.9,29.96,SE,142,18.0,24.0,-999,-99.99,,,-99.99,,2013-06-26 18:43:00,
2013-06-26 13:52:00,85.0,-99.9,29.96,SE,131,16.0,23.0,-999,-99.99,,,-99.99,,2013-06-26 18:52:00,
2013-06-26 14:02:00,85.0,-99.9,29.96,SE,130,18.0,24.0,-999,-99.99,,,-99.99,,2013-06-26 19:02:00,
2013-06-26 14:11:00,85.0,-99.9,29.96,SE,128,18.0,25.0,-999,-99.99,,,-99.99,,2013-06-26 19:11:00,
2013-06-26 14:33:00,86.0,-99.9,29.95,SE,136,16.0,25.0,-999,-99.99,,,-99.99,,2013-06-26 19:33:00,
2013-06-26 14:43:00,85.0,-99.9,29.95,SE,137,16.0,23.0,-999,-99.99,,,-99.99,,2013-06-26 19:43:00,
2013-06-26 14:52:00,85.0,-99.9,29.95,SE,137,17.0,22.0,-999,-99.99,,,-99.99,,2013-06-26 19:52:00,
2013-06-26 15:02:00,85.0,-99.9,29.94,SE,136,18.0,24.0,-999,-99.99,,,-99.99,,2013-06-26 20:02:00,
2013-06-26 15:12:00,84.0,-99.9,29.94,SE,127,20.0,23.0,-999,-99.99,,,-99.99,,2013-06-26 20:12:00,
2013-06-26 15:34:00,85.0,-99.9,29.94,ESE,121,18.0,24.0,-999,-99.99,,,-99.99,,2013-06-26 20:34:00,
2013-06-26 15:43:00,85.0,-99.9,29.93,SE,133,19.0,26.0,-999,-99.99,,,-99.99,,2013-06-26 20:43:00,
2013-06-26 15:53:00,85.0,-99.9,29.94,SE,134,19.0,24.0,-999,-99.99,,,-99.99,,2013-06-26 20:53:00,
2013-06-26 16:02:00,84.0,-99.9,29.93,ESE,123,21.0,25.0,-999,-99.99,,,-99.99,,2013-06-26 21:02:00,
2013-06-26 16:12:00,85.0,-99.9,29.93,ESE,121,18.0,25.0,-999,-99.99,,,-99.99,,2013-06-26 21:12:00,
2013-06-26 16:23:00,85.0,-99.9,29.93,ESE,121,18.0,25.0,-999,-99.99,,,-99.99,,2013-06-26 21:23:00,
2013-06-26 16:33:00,85.0,-99.9,29.93,SE,124,16.0,24.0,-999,-99.99,,,-99.99,,2013-06-26 21:33:00,
2013-06-26 16:43:00,85.0,-99.9,29.93,SE,125,20.0,24.0,-999,-99.99,,,-99.99,,2013-06-26 21:43:00,
2013-06-26 16:52:00,84.0,-99.9,29.93,SE,130,21.0,26.0,-999,-99.99,,,-99.99,,2013-06-26 21:52:00,
2013-06-26 17:01:00,84.0,-99.9,29.92,SE,126,22.0,28.0,-999,-99.99,,,-99.99,,2013-06-26 22:01:00,
2013-06-26 17:11:00,85.0,-99.9,29.92,SE,129,20.0,27.0,-999,-99.99,,,-99.99,,2013-06-26 22:11:00,
2013-06-26 17:22:00,85.0,-99.9,29.92,SE,129,20.0,27.0,-999,-99.99,,,-99.99,,2013-06-26 22:22:00,
2013-06-26 17:34:00,84.0,-99.9,29.91,ESE,122,19.0,24.0,-999,-99.99,,,-99.99,,2013-06-26 22:34:00,
2013-06-26 17:43:00,84.0,-99.9,29.91,ESE,119,20.0,26.0,-999,-99.99,,,-99.99,,2013-06-26 22:43:00,
2013-06-26 17:52:00,84.0,-99.9,29.91,ESE,121,18.0,25.0,-999,-99.99,,,-99.99,,2013-06-26 22:52:00,
2013-06-26 18:02:00,85.0,-99.9,29.91,ESE,122,19.0,23.0,-999,-99.99,,,-99.99,,2013-06-26 23:02:00,
2013-06-26 18:12:00,84.0,-99.9,29.92,ESE,123,18.0,25.0,-999,-99.99,,,-99.99,,2013-06-26 23:12:00,
2013-06-26 18:34:00,84.0,-99.9,29.92,ESE,122,19.0,25.0,-999,-99.99,,,-99.99,,2013-06-26 23:34:00,
2013-06-26 18:43:00,84.0,-99.9,29.92,SE,124,18.0,23.0,-999,-99.99,,,-99.99,,2013-06-26 23:43:00,
2013-06-26 18:53:00,84.0,-99.9,29.91,SE,124,16.0,25.0,-999,-99.99,,,-99.99,,2013-06-26 23:53:00,
2013-06-26 19:01:00,83.0,-99.9,29.91,SE,125,20.0,25.0,-999,-99.99,,,-99.99,,2013-06-27 00:01:00,
2013-06-26 19:12:00,84.0,-99.9,29.91,ESE,123,17.0,24.0,-999,-99.99,,,-99.99,,2013-06-27 00:12:00,
2013-06-26 19:34:00,83.0,-99.9,29.92,SE,130,17.0,22.0,-999,-99.99,,,-99.99,,2013-06-27 00:34:00,
2013-06-26 19:43:00,83.0,-99.9,29.91,SE,124,17.0,23.0,-999,-99.99,,,-99.99,,2013-06-27 00:43:00,
2013-06-26 19:53:00,83.0,-99.9,29.91,SE,132,13.0,22.0,-999,-99.99,,,-99.99,,2013-06-27 00:53:00,
2013-06-26 20:01:00,83.0,-99.9,29.91,SE,131,14.0,19.0,-999,-99.99,,,-99.99,,2013-06-27 01:01:00,
2013-06-26 20:11:00,83.0,-99.9,29.91,SE,129,15.0,19.0,-999,-99.99,,,-99.99,,2013-06-27 01:11:00,
2013-06-26 20:32:00,83.0,-99.9,29.91,SE,130,13.0,20.0,-999,-99.99,,,-99.99,,2013-06-27 01:32:00,
2013-06-26 20:43:00,82.0,-99.9,29.91,SE,127,16.0,19.0,-999,-99.99,,,-99.99,,2013-06-27 01:43:00,
2013-06-26 20:53:00,82.0,-99.9,29.92,SE,135,12.0,16.0,-999,-99.99,,,-99.99,,2013-06-27 01:53:00,
2013-06-26 21:01:00,82.0,-99.9,29.92,SE,136,14.0,19.0,-999,-99.99,,,-99.99,,2013-06-27 02:01:00,
2013-06-26 21:11:00,82.0,-99.9,29.92,SE,138,13.0,17.0,-999,-99.99,,,-99.99,,2013-06-27 02:11:00,
2013-06-26 21:22:00,82.0,-99.9,29.92,SE,138,13.0,17.0,-999,-99.99,,,-99.99,,2013-06-27 02:22:00,
2013-06-26 21:32:00,82.0,-99.9,29.92,SE,133,12.0,16.0,-999,-99.99,,,-99.99,,2013-06-27 02:32:00,
2013-06-26 21:42:00,82.0,-99.9,29.93,SE,135,13.0,17.0,-999,-99.99,,,-99.99,,2013-06-27 02:42:00,
2013-06-26 21:52:00,82.0,-99.9,29.93,SE,138,11.0,15.0,-999,-99.99,,,-99.99,,2013-06-27 02:52:00,
2013-06-26 22:02:00,82.0,-99.9,29.93,SE,139,13.0,17.0,-999,-99.99,,,-99.99,,2013-06-27 03:02:00,
2013-06-26 22:11:00,81.0,-99.9,29.93,SE,138,12.0,15.0,-999,-99.99,,,-99.99,,2013-06-27 03:11:00,
2013-06-26 22:33:00,81.0,-99.9,29.94,SE,141,12.0,16.0,-999,-99.99,,,-99.99,,2013-06-27 03:33:00,
2013-06-26 22:52:00,81.0,-99.9,29.94,SE,139,13.0,18.0,-999,-99.99,,,-99.99,,2013-06-27 03:52:00,
2013-06-26 23:01:00,81.0,-99.9,29.95,SE,137,12.0,16.0,-999,-99.99,,,-99.99,,2013-06-27 04:01:00,
2013-06-26 23:11:00,81.0,-99.9,29.95,SE,139,11.0,15.0,-999,-99.99,,,-99.99,,2013-06-27 04:11:00,
2013-06-26 23:33:00,81.0,-99.9,29.96,SE,142,11.0,16.0,-999,-99.99,,,-99.99,,2013-06-27 04:33:00,
2013-06-26 23:42:00,81.0,-99.9,29.96,SE,143,11.0,14.0,-999,-99.99,,,-99.99,,2013-06-27 04:42:00,
2013-06-26 23:53:00,81.0,-99.9,29.96,SE,145,11.0,16.0,-999,-99.99,,,-99.99,,2013-06-27 04:53:00,